Regional Weather Roundup
Issued by NWS Huntsville, AL

Home | Current Version | Previous Version | Text Only | Print | Product List | Glossary On
Versions: 1 2 3 4 5 6 7 8 9 10 11 12 13 14 15 16 17 18 19 20 21 22 23 24 25 26 27 28 29 30 31 32 33 34 35 36 37 38 39 40 41 42 43 44 45 46 47 48 49 50
000
ASUS44 KHUN 061310
RWRHUN

WEATHER ROUNDUP FOR THE TENNESSEE VALLEY
NATIONAL WEATHER SERVICE HUNTSVILLE AL
700 AM CST FRI MAR 06 2015

ALZ001>004-061400-
NORTHWEST ALABAMA

CITY           SKY/WX    TMP DP  RH WIND       PRES   REMARKS
COURTLAND HCN    N/A     16 N/A N/A CALM        N/A
RUSSELLVILLE     N/A     14 N/A N/A MISG        N/A
SHOALS AIRPORT CLEAR     18  10  71 N5        30.56R WCI  11
SHOALS TVA RES   N/A     16 N/A N/A MISG        N/A
$$

ALZ005>007-016-061400-
NORTH CENTRAL ALABAMA

CITY           SKY/WX    TMP DP  RH WIND       PRES   REMARKS
CULLMAN AG STN   N/A     16 N/A N/A N6          N/A  WCI   7
DECATUR AP     CLEAR     16  11  80 N7        30.53R WCI   6
HUNTSVILLE AP  CLEAR     18  11  74 N7        30.52R WCI   9
HUN NWS/UAH      N/A     17  11  77 N7          N/A  WCI   7
MERIDIANVILLE  CLEAR     18  12  79 N7        30.51R WCI   8
REDSTONE ARSN  CLEAR     17  13  86 N7        30.51R WCI   7
VINEMONT AP    FAIR      15  11  86 N7        30.48R WCI   5
$$

ALZ008>010-061400-
NORTHEAST ALABAMA

CITY           SKY/WX    TMP DP  RH WIND       PRES   REMARKS
ALBERTVILLE    CLEAR     19  19 100 N6        30.44R WCI  11
FORT PAYNE     SUNNY     19  14  79 CALM      30.45R
SCOTTSBORO AP  CLEAR     21  14  73 NE7       30.50R WCI  13
SCOTTSBORO HCN   N/A     19 N/A N/A MISG        N/A
VALLEY HEAD      N/A     18 N/A N/A MISG        N/A
$$

TNZ076-096-097-061400-
SOUTHEASTERN MIDDLE TENNESSEE

CITY           SKY/WX    TMP DP  RH WIND       PRES   REMARKS
TULLAHOMA      CLEAR     12   9  85 N3          N/A
WINCHESTER     CLEAR     14  12  92 CALM      30.49R
$$

...SURROUNDING SITES...

CITY           SKY/WX    TMP DP  RH WIND       PRES   REMARKS
ATLANTA        CLOUDY    28  24  85 N7        30.39R FOG     WCI  21
ANNISTON       CLOUDY    24  17  74 N6        30.45R WCI  17
BIRMINGHAM     PTCLDY    20  15  81 N7        30.48R WCI  11
CHATTANOOGA    MOSUNNY   23  13  65 N9        30.48R WCI  13
CORINTH        FAIR      18   9  68 NE6       30.58R WCI   9
DALTON         CLOUDY    25  21  86 CALM      30.46R
GADSDEN        CLEAR     21  14  73 N8        30.45S WCI  12
GOLDEN TRNGL   CLEAR     21  14  73 N12       30.53R WCI   9
HALEYVILLE       N/A     14  10  84 N3        30.52R
JACKSON TN     PTCLDY     5   0  79 SW3       30.59S
LEWISBURG      FAIR      12   6  77 CALM      30.54R
MEMPHIS        PTCLDY    16   9  74 CALM      30.60R
MURFREESBORO   FAIR      11   6  80 NW3       30.55R
NASHVILLE      PTCLDY    12   6  77 NW5       30.57R WCI   4
OXFORD MS      FAIR      14  10  85 CALM      30.60S
ROME           CLOUDY    25  17  72 N9        30.45R WCI  15
SAVANNAH       CLEAR     12   7  79 CALM      30.58R
TUPELO         CLEAR     19  10  68 NE9       30.58R WCI   8
TUSCALOOSA     CLEAR     22  15  75 N10       30.53R WCI  11
$$

...GULF COAST WEATHER...

CITY           SKY/WX    TMP DP  RH WIND       PRES   REMARKS
GULFPORT       PTCLDY    29  18  63 N13       30.45R WCI  19
PASCAGOULA     PTCLDY    29  18  63 N12G23    30.43R WCI  19
MOBILE         PTCLDY    27  18  69 N14       30.43R WCI  16
GULF SHORES    MOSUNNY   29  21  73 N13G22    30.40R WCI  19
PENSACOLA      PTCLDY    30  23  75 N12       30.38R WCI  20
DESTIN         MOSUNNY   33  25  72 N16       30.37R WCI  23
PANAMA CITY    MOSUNNY   37  31  77 N10       30.33R WCI  30
APPALACHICOLA  PTSUNNY   45  34  65 N14       30.29R
$$



USA.gov is the U.S. government's official web portal to all federal, state and local government web resources and services.